OB185 SPSO-SPRU

Flight info

Callsign OB185
Flight time 2h 19m
Altitude 10000
Route ESEDI DCT JCL DCT SLS V1 ESMIL
Aircraft BE58/L-SDFGRY/C

Departure

Time 2026-05-05 17:14
Airport Captain Renán Elías Olivera International Airport (SPSO)

Arrival

Time 2026-05-05 19:34
Airport Capitán FAP Carlos Martínez de Pinillos International Airport (SPRU)
Time Latitude Longitude Altitude Speed Heading
2026-05-05 16:49 -13.73758 -76.22052 43 ft 0 kts 111°
2026-05-05 17:04 -13.73779 -76.21997 44 ft 15 kts 111°
2026-05-05 17:04 -13.73774 -76.21908 44 ft 12 kts 38°
2026-05-05 17:04 -13.73767 -76.21837 45 ft 9 kts 104°
2026-05-05 17:05 -13.73770 -76.21823 46 ft 9 kts 104°
2026-05-05 17:05 -13.73774 -76.21809 46 ft 0 kts 103°
2026-05-05 17:05 -13.73774 -76.21807 46 ft 0 kts 103°
2026-05-05 17:06 -13.73786 -76.21757 46 ft 13 kts 101°
2026-05-05 17:06 -13.73768 -76.21671 47 ft 14 kts 41°
2026-05-05 17:06 -13.73725 -76.21635 47 ft 5 kts 39°
2026-05-05 17:06 -13.73673 -76.21591 48 ft 13 kts 39°
2026-05-05 17:07 -13.73585 -76.21516 49 ft 19 kts 46°
2026-05-05 17:07 -13.73518 -76.21458 49 ft 6 kts 41°
2026-05-05 17:07 -13.73473 -76.21419 50 ft 10 kts 40°
2026-05-05 17:07 -13.73419 -76.21373 50 ft 6 kts 42°
2026-05-05 17:08 -13.73397 -76.21339 50 ft 5 kts 96°
2026-05-05 17:08 -13.73407 -76.21307 50 ft 4 kts 110°
2026-05-05 17:08 -13.73416 -76.21279 51 ft 3 kts 103°
2026-05-05 17:08 -13.73417 -76.21278 51 ft 0 kts 103°
2026-05-05 17:09 -13.73417 -76.21275 51 ft 0 kts 103°
2026-05-05 17:10 -13.73419 -76.21268 51 ft 1 kts 103°
2026-05-05 17:10 -13.73421 -76.21256 51 ft 1 kts 103°
2026-05-05 17:10 -13.73422 -76.21252 51 ft 0 kts 102°
2026-05-05 17:12 -13.73432 -76.21217 51 ft 10 kts 109°
2026-05-05 17:12 -13.73472 -76.21197 52 ft 2 kts 191°
2026-05-05 17:13 -13.73495 -76.21206 52 ft 0 kts 219°
2026-05-05 17:13 -13.73603 -76.21298 51 ft 63 kts 219°
2026-05-05 17:14 -13.74119 -76.21729 136 ft 108 kts 220°
2026-05-05 17:14 -13.74667 -76.22143 636 ft 100 kts 218°
2026-05-05 17:14 -13.75219 -76.22602 1106 ft 102 kts 237°
2026-05-05 17:14 -13.75363 -76.23289 1519 ft 106 kts 284°
2026-05-05 17:15 -13.74940 -76.23860 1976 ft 106 kts 338°
2026-05-05 17:15 -13.74212 -76.24044 2298 ft 121 kts 342°
2026-05-05 17:15 -13.73304 -76.24354 2398 ft 145 kts 340°
2026-05-05 17:15 -13.72339 -76.24714 2683 ft 150 kts 339°
2026-05-05 17:16 -13.71467 -76.25304 2970 ft 153 kts 312°
2026-05-05 17:16 -13.70816 -76.26177 3262 ft 153 kts 306°
2026-05-05 17:16 -13.70194 -76.27074 3571 ft 153 kts 306°
2026-05-05 17:16 -13.69587 -76.27956 3870 ft 153 kts 306°
2026-05-05 17:17 -13.68973 -76.28849 4167 ft 153 kts 306°
2026-05-05 17:17 -13.68361 -76.29742 4449 ft 152 kts 306°
2026-05-05 17:17 -13.67748 -76.30636 4724 ft 152 kts 306°
2026-05-05 17:17 -13.67144 -76.31516 5007 ft 152 kts 306°
2026-05-05 17:18 -13.66534 -76.32406 5288 ft 152 kts 306°
2026-05-05 17:18 -13.65923 -76.33296 5562 ft 152 kts 306°
2026-05-05 17:18 -13.65314 -76.34184 5810 ft 151 kts 306°
2026-05-05 17:18 -13.64715 -76.35057 6052 ft 151 kts 306°
2026-05-05 17:19 -13.64108 -76.35941 6287 ft 150 kts 306°
2026-05-05 17:19 -13.63503 -76.36822 6523 ft 150 kts 306°
2026-05-05 17:19 -13.62897 -76.37706 6746 ft 151 kts 306°
2026-05-05 17:19 -13.62298 -76.38580 6974 ft 151 kts 306°
2026-05-05 17:20 -13.61694 -76.39459 7244 ft 151 kts 306°
2026-05-05 17:20 -13.61088 -76.40341 7484 ft 151 kts 306°
2026-05-05 17:20 -13.60479 -76.41229 7721 ft 152 kts 306°
2026-05-05 17:20 -13.59869 -76.42117 7915 ft 151 kts 306°
2026-05-05 17:21 -13.59269 -76.42991 8140 ft 151 kts 306°
2026-05-05 17:21 -13.58656 -76.43882 8364 ft 152 kts 306°
2026-05-05 17:21 -13.58042 -76.44777 8565 ft 152 kts 306°
2026-05-05 17:22 -13.56823 -76.46552 8995 ft 152 kts 306°
2026-05-05 17:22 -13.56216 -76.47435 9206 ft 153 kts 306°
2026-05-05 17:22 -13.55600 -76.48332 9419 ft 153 kts 307°
2026-05-05 17:22 -13.54982 -76.49229 9629 ft 154 kts 306°
2026-05-05 17:23 -13.54361 -76.50133 9835 ft 156 kts 306°
2026-05-05 17:23 -13.53714 -76.51073 9793 ft 161 kts 307°
2026-05-05 17:23 -13.53068 -76.52014 9789 ft 160 kts 306°
2026-05-05 17:23 -13.52476 -76.52956 9794 ft 158 kts 299°
2026-05-05 17:24 -13.51964 -76.53965 9784 ft 156 kts 309°
2026-05-05 17:24 -13.51263 -76.54809 9778 ft 158 kts 310°
2026-05-05 17:24 -13.50572 -76.55712 9793 ft 162 kts 308°
2026-05-05 17:24 -13.49900 -76.56647 9799 ft 165 kts 307°
2026-05-05 17:25 -13.49215 -76.57625 9810 ft 169 kts 306°
2026-05-05 17:25 -13.48760 -76.58281 9780 ft 170 kts 306°
2026-05-05 17:25 -13.47842 -76.59611 9785 ft 171 kts 306°
2026-05-05 17:25 -13.47155 -76.60609 9779 ft 171 kts 307°
2026-05-05 17:26 -13.46467 -76.61608 9789 ft 172 kts 306°
2026-05-05 17:26 -13.45772 -76.62618 9788 ft 173 kts 306°
2026-05-05 17:26 -13.45078 -76.63625 9778 ft 172 kts 306°
2026-05-05 17:26 -13.44385 -76.64629 9790 ft 172 kts 306°
2026-05-05 17:27 -13.43690 -76.65638 9790 ft 173 kts 307°
2026-05-05 17:27 -13.42994 -76.66649 9794 ft 173 kts 306°
2026-05-05 17:27 -13.42302 -76.67651 9795 ft 173 kts 306°
2026-05-05 17:27 -13.41605 -76.68664 9792 ft 172 kts 306°
2026-05-05 17:28 -13.40903 -76.69659 9790 ft 172 kts 313°
2026-05-05 17:28 -13.39869 -76.70268 9789 ft 171 kts 340°
2026-05-05 17:28 -13.38729 -76.70641 9789 ft 171 kts 343°
2026-05-05 17:28 -13.37577 -76.71000 9787 ft 171 kts 343°
2026-05-05 17:29 -13.36447 -76.71348 9769 ft 170 kts 343°
2026-05-05 17:29 -13.35305 -76.71698 9788 ft 170 kts 343°
2026-05-05 17:29 -13.34154 -76.72050 9782 ft 171 kts 344°
2026-05-05 17:29 -13.33006 -76.72399 9779 ft 173 kts 343°
2026-05-05 17:30 -13.31844 -76.72752 9772 ft 172 kts 344°
2026-05-05 17:30 -13.30706 -76.73098 9780 ft 172 kts 343°
2026-05-05 17:30 -13.29555 -76.73447 9756 ft 171 kts 343°
2026-05-05 17:30 -13.28419 -76.73792 9773 ft 169 kts 343°
2026-05-05 17:31 -13.27276 -76.74139 9763 ft 168 kts 343°
2026-05-05 17:31 -13.26156 -76.74479 9759 ft 167 kts 343°
2026-05-05 17:31 -13.25032 -76.74820 9772 ft 167 kts 343°
2026-05-05 17:31 -13.23920 -76.75157 9777 ft 167 kts 343°
2026-05-05 17:32 -13.22803 -76.75497 9781 ft 168 kts 343°
2026-05-05 17:32 -13.21663 -76.75842 9790 ft 169 kts 343°
2026-05-05 17:32 -13.20527 -76.76186 9819 ft 171 kts 343°
2026-05-05 17:32 -13.19370 -76.76537 9805 ft 175 kts 343°
2026-05-05 17:33 -13.18201 -76.76891 9772 ft 176 kts 343°
2026-05-05 17:33 -13.17022 -76.77248 9751 ft 173 kts 344°
2026-05-05 17:33 -13.15874 -76.77596 9760 ft 172 kts 344°
2026-05-05 17:33 -13.14729 -76.77943 9770 ft 171 kts 344°
2026-05-05 17:34 -13.13575 -76.78293 9778 ft 171 kts 343°
2026-05-05 17:34 -13.12432 -76.78638 9763 ft 171 kts 343°
2026-05-05 17:34 -13.11294 -76.78983 9772 ft 168 kts 343°
2026-05-05 17:34 -13.10159 -76.79327 9811 ft 171 kts 343°
2026-05-05 17:35 -13.09001 -76.79678 9797 ft 175 kts 343°
2026-05-05 17:35 -13.07825 -76.80034 9782 ft 176 kts 343°
2026-05-05 17:35 -13.06647 -76.80390 9753 ft 174 kts 343°
2026-05-05 17:35 -13.05494 -76.80740 9746 ft 174 kts 343°
2026-05-05 17:36 -13.04319 -76.81096 9752 ft 174 kts 343°
2026-05-05 17:36 -13.03158 -76.81448 9772 ft 174 kts 343°
2026-05-05 17:36 -13.01991 -76.81800 9766 ft 175 kts 343°
2026-05-05 17:36 -13.00813 -76.82156 9762 ft 176 kts 343°
2026-05-05 17:37 -12.99640 -76.82512 9760 ft 176 kts 343°
2026-05-05 17:37 -12.98854 -76.82749 9760 ft 175 kts 343°
2026-05-05 17:37 -12.97281 -76.83225 9767 ft 175 kts 343°
2026-05-05 17:37 -12.96119 -76.83577 9752 ft 174 kts 343°
2026-05-05 17:38 -12.94950 -76.83930 9745 ft 173 kts 343°
2026-05-05 17:38 -12.93795 -76.84280 9777 ft 171 kts 343°
2026-05-05 17:38 -12.92641 -76.84628 9768 ft 173 kts 343°
2026-05-05 17:38 -12.91490 -76.84977 9791 ft 173 kts 343°
2026-05-05 17:39 -12.90316 -76.85332 9788 ft 175 kts 343°
2026-05-05 17:39 -12.89855 -76.85471 9774 ft 175 kts 343°
2026-05-05 17:39 -12.88744 -76.85808 9768 ft 173 kts 343°
2026-05-05 17:39 -12.87575 -76.86161 9819 ft 175 kts 343°
2026-05-05 17:40 -12.86393 -76.86519 9791 ft 177 kts 344°
2026-05-05 17:40 -12.85193 -76.86880 9787 ft 179 kts 344°
2026-05-05 17:40 -12.83996 -76.87243 9748 ft 177 kts 344°
2026-05-05 17:40 -12.82825 -76.87597 9779 ft 174 kts 344°
2026-05-05 17:41 -12.81650 -76.87951 9784 ft 177 kts 344°
2026-05-05 17:41 -12.80464 -76.88309 9791 ft 177 kts 343°
2026-05-05 17:41 -12.79277 -76.88668 9754 ft 178 kts 343°
2026-05-05 17:41 -12.78088 -76.89027 9759 ft 177 kts 343°
2026-05-05 17:42 -12.76909 -76.89383 9781 ft 177 kts 343°
2026-05-05 17:42 -12.75717 -76.89743 9763 ft 177 kts 343°
2026-05-05 17:42 -12.74521 -76.90105 9760 ft 177 kts 343°
2026-05-05 17:42 -12.73333 -76.90463 9754 ft 176 kts 343°
2026-05-05 17:43 -12.72156 -76.90819 9738 ft 175 kts 343°
2026-05-05 17:43 -12.70992 -76.91170 9730 ft 174 kts 343°
2026-05-05 17:43 -12.69835 -76.91520 9746 ft 171 kts 343°
2026-05-05 17:43 -12.68678 -76.91869 9763 ft 172 kts 343°
2026-05-05 17:44 -12.67535 -76.92214 9768 ft 172 kts 343°
2026-05-05 17:44 -12.66374 -76.92564 9730 ft 171 kts 343°
2026-05-05 17:44 -12.65246 -76.92905 9753 ft 168 kts 344°
2026-05-05 17:44 -12.64101 -76.93250 9825 ft 171 kts 343°
2026-05-05 17:45 -12.62933 -76.93603 9811 ft 177 kts 343°
2026-05-05 17:45 -12.61751 -76.93959 9784 ft 178 kts 343°
2026-05-05 17:45 -12.60547 -76.94321 9769 ft 179 kts 343°
2026-05-05 17:45 -12.59357 -76.94681 9766 ft 176 kts 343°
2026-05-05 17:46 -12.58166 -76.95040 9745 ft 177 kts 343°
2026-05-05 17:46 -12.56984 -76.95386 9758 ft 176 kts 344°
2026-05-05 17:46 -12.55804 -76.95725 9787 ft 176 kts 344°
2026-05-05 17:46 -12.54609 -76.96066 9777 ft 177 kts 344°
2026-05-05 17:47 -12.53416 -76.96408 9783 ft 177 kts 344°
2026-05-05 17:47 -12.52221 -76.96751 9728 ft 178 kts 344°
2026-05-05 17:47 -12.51037 -76.97090 9739 ft 174 kts 344°
2026-05-05 17:47 -12.49883 -76.97420 9773 ft 174 kts 344°
2026-05-05 17:48 -12.48700 -76.97759 9786 ft 175 kts 344°
2026-05-05 17:48 -12.47525 -76.98096 9738 ft 176 kts 344°
2026-05-05 17:48 -12.46348 -76.98433 9723 ft 174 kts 344°
2026-05-05 17:48 -12.45191 -76.98764 9776 ft 171 kts 344°
2026-05-05 17:49 -12.44021 -76.99100 9805 ft 175 kts 344°
2026-05-05 17:49 -12.42835 -76.99439 9771 ft 178 kts 344°
2026-05-05 17:49 -12.41621 -76.99786 9748 ft 178 kts 344°
2026-05-05 17:49 -12.40438 -77.00125 9741 ft 177 kts 344°
2026-05-05 17:50 -12.39243 -77.00468 9708 ft 173 kts 344°
2026-05-05 17:50 -12.38110 -77.00793 9765 ft 168 kts 344°
2026-05-05 17:50 -12.36961 -77.01122 9798 ft 174 kts 344°
2026-05-05 17:50 -12.35766 -77.01463 9803 ft 179 kts 344°
2026-05-05 17:51 -12.34567 -77.01806 9760 ft 180 kts 344°
2026-05-05 17:51 -12.33363 -77.02150 9754 ft 179 kts 344°
2026-05-05 17:51 -12.32163 -77.02493 9758 ft 177 kts 344°
2026-05-05 17:51 -12.30968 -77.02835 9756 ft 177 kts 344°
2026-05-05 17:52 -12.29781 -77.03175 9794 ft 174 kts 344°
2026-05-05 17:52 -12.28622 -77.03507 9834 ft 172 kts 344°
2026-05-05 17:52 -12.27476 -77.03835 9864 ft 171 kts 344°
2026-05-05 17:52 -12.26320 -77.04165 9894 ft 171 kts 344°
2026-05-05 17:53 -12.25159 -77.04497 9919 ft 173 kts 344°
2026-05-05 17:53 -12.23996 -77.04829 9943 ft 172 kts 344°
2026-05-05 17:53 -12.22831 -77.05163 9942 ft 174 kts 344°
2026-05-05 17:53 -12.21653 -77.05499 9934 ft 175 kts 344°
2026-05-05 17:54 -12.20485 -77.05833 9945 ft 175 kts 344°
2026-05-05 17:54 -12.19308 -77.06170 9950 ft 175 kts 344°
2026-05-05 17:54 -12.18132 -77.06506 9950 ft 174 kts 345°
2026-05-05 17:54 -12.16965 -77.06839 9950 ft 174 kts 345°
2026-05-05 17:55 -12.15791 -77.07175 9959 ft 175 kts 344°
2026-05-05 17:55 -12.14617 -77.07510 9965 ft 175 kts 344°
2026-05-05 17:55 -12.13422 -77.07851 9966 ft 176 kts 343°
2026-05-05 17:55 -12.12240 -77.08189 9971 ft 176 kts 344°
2026-05-05 17:56 -12.11068 -77.08524 9974 ft 176 kts 344°
2026-05-05 17:56 -12.09877 -77.08864 9968 ft 176 kts 344°
2026-05-05 17:56 -12.08756 -77.09184 9976 ft 176 kts 344°
2026-05-05 17:56 -12.07565 -77.09525 9979 ft 176 kts 344°
2026-05-05 17:57 -12.06391 -77.09860 9977 ft 176 kts 344°
2026-05-05 17:57 -12.05193 -77.10201 9979 ft 176 kts 345°
2026-05-05 17:57 -12.04016 -77.10566 9976 ft 176 kts 336°
2026-05-05 17:57 -12.02947 -77.11163 9980 ft 176 kts 330°
2026-05-05 17:58 -12.01892 -77.11806 9980 ft 176 kts 329°
2026-05-05 17:58 -12.00839 -77.12447 9980 ft 176 kts 329°
2026-05-05 17:58 -11.99776 -77.13094 9981 ft 176 kts 329°
2026-05-05 17:58 -11.98732 -77.13731 9980 ft 176 kts 329°
2026-05-05 17:59 -11.97678 -77.14372 9980 ft 176 kts 329°
2026-05-05 17:59 -11.96606 -77.15024 9975 ft 176 kts 329°
2026-05-05 17:59 -11.95559 -77.15661 9975 ft 176 kts 329°
2026-05-05 17:59 -11.94493 -77.16309 9974 ft 177 kts 329°
2026-05-05 18:00 -11.93435 -77.16952 9977 ft 177 kts 329°
2026-05-05 18:00 -11.92381 -77.17593 9976 ft 177 kts 329°
2026-05-05 18:00 -11.91308 -77.18246 9974 ft 177 kts 329°
2026-05-05 18:00 -11.90251 -77.18888 9968 ft 177 kts 330°
2026-05-05 18:01 -11.89188 -77.19534 9969 ft 177 kts 329°
2026-05-05 18:01 -11.88141 -77.20171 9969 ft 176 kts 329°
2026-05-05 18:01 -11.87075 -77.20818 9965 ft 176 kts 329°
2026-05-05 18:01 -11.86011 -77.21465 9964 ft 176 kts 330°
2026-05-05 18:02 -11.84962 -77.22102 9957 ft 175 kts 329°
2026-05-05 18:02 -11.83913 -77.22739 9977 ft 174 kts 329°
2026-05-05 18:02 -11.82862 -77.23377 9979 ft 176 kts 329°
2026-05-05 18:02 -11.81808 -77.24017 9973 ft 176 kts 328°
2026-05-05 18:03 -11.80748 -77.24661 9981 ft 178 kts 328°
2026-05-05 18:03 -11.79685 -77.25307 9944 ft 177 kts 328°
2026-05-05 18:03 -11.78636 -77.25944 9972 ft 175 kts 329°
2026-05-05 18:03 -11.77572 -77.26590 9958 ft 175 kts 329°
2026-05-05 18:04 -11.76524 -77.27226 9975 ft 174 kts 328°
2026-05-05 18:04 -11.75491 -77.27853 9974 ft 174 kts 328°
2026-05-05 18:04 -11.74440 -77.28492 9961 ft 175 kts 328°
2026-05-05 18:04 -11.73397 -77.29125 9971 ft 174 kts 328°
2026-05-05 18:05 -11.72348 -77.29761 9982 ft 174 kts 328°
2026-05-05 18:05 -11.71306 -77.30394 9981 ft 175 kts 328°
2026-05-05 18:05 -11.70244 -77.31038 9953 ft 175 kts 328°
2026-05-05 18:05 -11.69205 -77.31668 9969 ft 173 kts 328°
2026-05-05 18:06 -11.68165 -77.32299 9994 ft 175 kts 328°
2026-05-05 18:06 -11.67816 -77.32510 9987 ft 175 kts 328°
2026-05-05 18:06 -11.66046 -77.33585 9993 ft 178 kts 328°
2026-05-05 18:06 -11.64976 -77.34233 9966 ft 179 kts 329°
2026-05-05 18:07 -11.63906 -77.34882 9949 ft 177 kts 329°
2026-05-05 18:07 -11.62839 -77.35529 9947 ft 174 kts 329°
2026-05-05 18:07 -11.61804 -77.36157 9955 ft 172 kts 329°
2026-05-05 18:07 -11.60771 -77.36784 9977 ft 171 kts 329°
2026-05-05 18:08 -11.59743 -77.37406 9980 ft 173 kts 329°
2026-05-05 18:08 -11.58696 -77.38041 9992 ft 174 kts 329°
2026-05-05 18:08 -11.57653 -77.38673 9976 ft 176 kts 329°
2026-05-05 18:08 -11.56595 -77.39314 9963 ft 175 kts 329°
2026-05-05 18:09 -11.55543 -77.39952 9976 ft 174 kts 329°
2026-05-05 18:09 -11.54514 -77.40576 9989 ft 175 kts 329°
2026-05-05 18:09 -11.53450 -77.41221 9961 ft 174 kts 329°
2026-05-05 18:09 -11.52422 -77.41843 9973 ft 172 kts 329°
2026-05-05 18:10 -11.51384 -77.42472 9999 ft 173 kts 329°
2026-05-05 18:10 -11.50345 -77.43101 9986 ft 174 kts 329°
2026-05-05 18:10 -11.49296 -77.43736 9986 ft 173 kts 329°
2026-05-05 18:10 -11.48255 -77.44366 9998 ft 174 kts 329°
2026-05-05 18:11 -11.47211 -77.44999 10011 ft 175 kts 329°
2026-05-05 18:11 -11.46152 -77.45640 10014 ft 177 kts 329°
2026-05-05 18:11 -11.45095 -77.46280 9974 ft 177 kts 329°
2026-05-05 18:11 -11.44029 -77.46925 9984 ft 175 kts 329°
2026-05-05 18:12 -11.42981 -77.47560 9972 ft 175 kts 329°
2026-05-05 18:12 -11.41938 -77.48192 9989 ft 173 kts 329°
2026-05-05 18:12 -11.40904 -77.48818 10024 ft 172 kts 329°
2026-05-05 18:12 -11.39861 -77.49449 10004 ft 174 kts 330°
2026-05-05 18:13 -11.38813 -77.50084 10008 ft 173 kts 329°
2026-05-05 18:13 -11.37779 -77.50709 9998 ft 174 kts 329°
2026-05-05 18:13 -11.36737 -77.51339 10029 ft 174 kts 329°
2026-05-05 18:13 -11.35682 -77.51977 10008 ft 175 kts 329°
2026-05-05 18:14 -11.34641 -77.52607 10014 ft 174 kts 329°
2026-05-05 18:14 -11.33582 -77.53248 10031 ft 175 kts 329°
2026-05-05 18:14 -11.32522 -77.53889 10035 ft 178 kts 329°
2026-05-05 18:14 -11.31460 -77.54530 9997 ft 177 kts 329°
2026-05-05 18:15 -11.30397 -77.55173 10018 ft 175 kts 329°
2026-05-05 18:15 -11.29352 -77.55806 10014 ft 176 kts 329°
2026-05-05 18:15 -11.28273 -77.56410 10023 ft 176 kts 334°
2026-05-05 18:15 -11.27152 -77.56937 10028 ft 176 kts 335°
2026-05-05 18:16 -11.26031 -77.57459 10009 ft 177 kts 335°
2026-05-05 18:16 -11.24908 -77.57983 9992 ft 177 kts 335°
2026-05-05 18:16 -11.23789 -77.58504 9986 ft 175 kts 335°
2026-05-05 18:16 -11.22695 -77.59016 10019 ft 172 kts 336°
2026-05-05 18:17 -11.21598 -77.59527 10030 ft 174 kts 336°
2026-05-05 18:17 -11.20484 -77.60046 10019 ft 175 kts 335°
2026-05-05 18:17 -11.19371 -77.60566 10027 ft 176 kts 335°
2026-05-05 18:17 -11.18238 -77.61095 10017 ft 177 kts 335°
2026-05-05 18:18 -11.17113 -77.61620 9992 ft 177 kts 335°
2026-05-05 18:18 -11.15991 -77.62144 9983 ft 177 kts 335°
2026-05-05 18:18 -11.14864 -77.62669 9997 ft 176 kts 335°
2026-05-05 18:18 -11.13748 -77.63191 9994 ft 176 kts 335°
2026-05-05 18:19 -11.12643 -77.63707 10005 ft 176 kts 335°
2026-05-05 18:19 -11.11513 -77.64234 9988 ft 176 kts 336°
2026-05-05 18:19 -11.10392 -77.64757 9982 ft 176 kts 336°
2026-05-05 18:19 -11.09291 -77.65271 9996 ft 175 kts 336°
2026-05-05 18:20 -11.08169 -77.65794 10004 ft 177 kts 336°
2026-05-05 18:20 -11.07426 -77.66140 9986 ft 178 kts 336°
2026-05-05 18:20 -11.05911 -77.66846 9995 ft 177 kts 335°
2026-05-05 18:20 -11.04795 -77.67366 9976 ft 178 kts 335°
2026-05-05 18:21 -11.03666 -77.67893 9965 ft 176 kts 335°
2026-05-05 18:21 -11.02553 -77.68412 9971 ft 175 kts 335°
2026-05-05 18:21 -11.01433 -77.68935 9967 ft 173 kts 335°
2026-05-05 18:21 -11.00339 -77.69444 9952 ft 171 kts 335°
2026-05-05 18:22 -10.99254 -77.69950 10021 ft 172 kts 335°
2026-05-05 18:22 -10.98153 -77.70464 10039 ft 176 kts 335°
2026-05-05 18:22 -10.97022 -77.70991 9998 ft 179 kts 335°
2026-05-05 18:22 -10.95886 -77.71519 9972 ft 178 kts 335°
2026-05-05 18:23 -10.94760 -77.72045 9979 ft 177 kts 335°
2026-05-05 18:23 -10.93634 -77.72570 9971 ft 177 kts 336°
2026-05-05 18:23 -10.92512 -77.73093 9961 ft 176 kts 336°
2026-05-05 18:23 -10.91406 -77.73608 9978 ft 174 kts 336°
2026-05-05 18:24 -10.90300 -77.74123 10006 ft 175 kts 336°
2026-05-05 18:24 -10.89184 -77.74642 10003 ft 177 kts 336°
2026-05-05 18:24 -10.88052 -77.75169 10010 ft 179 kts 335°
2026-05-05 18:24 -10.86902 -77.75704 9998 ft 180 kts 335°
2026-05-05 18:25 -10.85759 -77.76237 10012 ft 181 kts 335°
2026-05-05 18:25 -10.85377 -77.76414 10002 ft 182 kts 335°
2026-05-05 18:25 -10.83458 -77.77309 9953 ft 180 kts 335°
2026-05-05 18:25 -10.82319 -77.77838 9961 ft 178 kts 335°
2026-05-05 18:26 -10.81195 -77.78362 9988 ft 177 kts 336°
2026-05-05 18:26 -10.80075 -77.78884 9974 ft 179 kts 336°
2026-05-05 18:26 -10.78942 -77.79411 9984 ft 179 kts 336°
2026-05-05 18:26 -10.77792 -77.79947 9971 ft 178 kts 336°
2026-05-05 18:27 -10.76670 -77.80469 9994 ft 177 kts 336°
2026-05-05 18:27 -10.75529 -77.80999 9997 ft 181 kts 336°
2026-05-05 18:27 -10.74371 -77.81538 9952 ft 181 kts 336°
2026-05-05 18:27 -10.73237 -77.82065 9965 ft 179 kts 336°
2026-05-05 18:28 -10.70946 -77.83131 9952 ft 180 kts 335°
2026-05-05 18:28 -10.69809 -77.83659 9945 ft 177 kts 335°
2026-05-05 18:28 -10.68693 -77.84178 9967 ft 175 kts 335°
2026-05-05 18:29 -10.67596 -77.84689 9991 ft 174 kts 336°
2026-05-05 18:29 -10.66481 -77.85208 10002 ft 176 kts 336°
2026-05-05 18:29 -10.65362 -77.85729 10006 ft 177 kts 336°
2026-05-05 18:29 -10.64227 -77.86256 10015 ft 180 kts 337°
2026-05-05 18:30 -10.63067 -77.86795 10016 ft 181 kts 336°
2026-05-05 18:30 -10.61918 -77.87329 10005 ft 184 kts 337°
2026-05-05 18:30 -10.60742 -77.87875 9974 ft 185 kts 336°
2026-05-05 18:30 -10.59569 -77.88420 9939 ft 182 kts 336°
2026-05-05 18:31 -10.58422 -77.88953 9986 ft 179 kts 336°
2026-05-05 18:31 -10.57283 -77.89483 9990 ft 182 kts 336°
2026-05-05 18:31 -10.56129 -77.90018 9986 ft 181 kts 335°
2026-05-05 18:31 -10.54982 -77.90551 9960 ft 181 kts 335°
2026-05-05 18:32 -10.53834 -77.91086 9964 ft 179 kts 336°
2026-05-05 18:32 -10.52712 -77.91608 9986 ft 177 kts 336°
2026-05-05 18:32 -10.51572 -77.92136 9987 ft 179 kts 336°
2026-05-05 18:32 -10.50436 -77.92665 9971 ft 179 kts 336°
2026-05-05 18:33 -10.49305 -77.93190 9988 ft 179 kts 336°
2026-05-05 18:33 -10.48158 -77.93722 9952 ft 180 kts 336°
2026-05-05 18:33 -10.47020 -77.94250 9973 ft 180 kts 336°
2026-05-05 18:33 -10.45876 -77.94782 9973 ft 180 kts 336°
2026-05-05 18:34 -10.44727 -77.95316 9956 ft 180 kts 337°
2026-05-05 18:34 -10.43587 -77.95844 9974 ft 179 kts 336°
2026-05-05 18:34 -10.42444 -77.96375 9953 ft 179 kts 336°
2026-05-05 18:34 -10.41324 -77.96895 9964 ft 178 kts 336°
2026-05-05 18:35 -10.40190 -77.97421 9983 ft 178 kts 335°
2026-05-05 18:35 -10.39043 -77.97953 9983 ft 181 kts 335°
2026-05-05 18:35 -10.37883 -77.98492 9957 ft 182 kts 335°
2026-05-05 18:35 -10.36738 -77.99023 9952 ft 181 kts 336°
2026-05-05 18:36 -10.35584 -77.99559 9957 ft 180 kts 336°
2026-05-05 18:36 -10.34445 -78.00088 9950 ft 179 kts 336°
2026-05-05 18:36 -10.33297 -78.00620 9971 ft 180 kts 336°
2026-05-05 18:36 -10.32163 -78.01147 9970 ft 180 kts 336°
2026-05-05 18:37 -10.31013 -78.01679 9968 ft 181 kts 336°
2026-05-05 18:37 -10.29865 -78.02212 9966 ft 180 kts 336°
2026-05-05 18:37 -10.28715 -78.02745 9970 ft 180 kts 336°
2026-05-05 18:37 -10.27571 -78.03275 9961 ft 180 kts 336°
2026-05-05 18:38 -10.26431 -78.03804 9965 ft 180 kts 336°
2026-05-05 18:38 -10.25288 -78.04333 9975 ft 180 kts 336°
2026-05-05 18:38 -10.24142 -78.04864 9975 ft 180 kts 336°
2026-05-05 18:38 -10.22993 -78.05398 9960 ft 180 kts 336°
2026-05-05 18:39 -10.21848 -78.05929 9952 ft 180 kts 336°
2026-05-05 18:39 -10.20706 -78.06458 9955 ft 179 kts 336°
2026-05-05 18:39 -10.19577 -78.06982 9954 ft 179 kts 336°
2026-05-05 18:39 -10.18439 -78.07510 9946 ft 179 kts 336°
2026-05-05 18:40 -10.17299 -78.08037 9943 ft 178 kts 336°
2026-05-05 18:40 -10.16170 -78.08560 9938 ft 177 kts 336°
2026-05-05 18:40 -10.15049 -78.09080 9942 ft 177 kts 336°
2026-05-05 18:40 -10.13928 -78.09599 9944 ft 177 kts 336°
2026-05-05 18:41 -10.12791 -78.10126 9933 ft 178 kts 336°
2026-05-05 18:41 -10.11661 -78.10649 9938 ft 178 kts 336°
2026-05-05 18:41 -10.10534 -78.11170 9948 ft 178 kts 336°
2026-05-05 18:41 -10.09405 -78.11694 9948 ft 179 kts 336°
2026-05-05 18:42 -10.08257 -78.12225 9928 ft 178 kts 336°
2026-05-05 18:42 -10.07118 -78.12753 9931 ft 179 kts 336°
2026-05-05 18:42 -10.05986 -78.13277 9919 ft 178 kts 336°
2026-05-05 18:42 -10.04867 -78.13796 9935 ft 177 kts 336°
2026-05-05 18:43 -10.03735 -78.14320 9928 ft 178 kts 336°
2026-05-05 18:43 -10.02599 -78.14845 9924 ft 178 kts 336°
2026-05-05 18:43 -10.01478 -78.15364 9942 ft 178 kts 336°
2026-05-05 18:43 -10.00348 -78.15887 9938 ft 179 kts 336°
2026-05-05 18:44 -9.99198 -78.16419 9929 ft 180 kts 336°
2026-05-05 18:44 -9.98054 -78.16949 9927 ft 179 kts 336°
2026-05-05 18:44 -9.96918 -78.17474 9935 ft 180 kts 336°
2026-05-05 18:44 -9.95780 -78.18001 9925 ft 179 kts 336°
2026-05-05 18:45 -9.94643 -78.18527 9926 ft 178 kts 336°
2026-05-05 18:45 -9.93508 -78.19052 9934 ft 178 kts 336°
2026-05-05 18:45 -9.92379 -78.19575 9928 ft 176 kts 336°
2026-05-05 18:45 -9.91268 -78.20089 9985 ft 178 kts 336°
2026-05-05 18:46 -9.90125 -78.20617 9972 ft 182 kts 336°
2026-05-05 18:46 -9.88966 -78.21153 9938 ft 182 kts 336°
2026-05-05 18:46 -9.87810 -78.21688 9930 ft 180 kts 336°
2026-05-05 18:46 -9.86669 -78.22216 9954 ft 179 kts 336°
2026-05-05 18:47 -9.85532 -78.22742 9965 ft 180 kts 336°
2026-05-05 18:47 -9.84377 -78.23275 9956 ft 179 kts 337°
2026-05-05 18:47 -9.83246 -78.23798 9980 ft 179 kts 337°
2026-05-05 18:47 -9.82103 -78.24326 9978 ft 181 kts 337°
2026-05-05 18:48 -9.80945 -78.24862 9968 ft 182 kts 336°
2026-05-05 18:48 -9.79794 -78.25394 9958 ft 182 kts 336°
2026-05-05 18:48 -9.78635 -78.25929 9963 ft 182 kts 337°
2026-05-05 18:48 -9.77478 -78.26463 9960 ft 182 kts 336°
2026-05-05 18:49 -9.76326 -78.26996 9948 ft 182 kts 336°
2026-05-05 18:49 -9.75166 -78.27532 9950 ft 181 kts 337°
2026-05-05 18:49 -9.74029 -78.28058 9975 ft 181 kts 336°
2026-05-05 18:49 -9.72870 -78.28593 9955 ft 182 kts 336°
2026-05-05 18:50 -9.71712 -78.29128 9917 ft 181 kts 337°
2026-05-05 18:50 -9.70581 -78.29651 9956 ft 177 kts 337°
2026-05-05 18:50 -9.69457 -78.30170 9963 ft 178 kts 336°
2026-05-05 18:50 -9.68327 -78.30692 9968 ft 178 kts 337°
2026-05-05 18:51 -9.67186 -78.31219 9963 ft 178 kts 336°
2026-05-05 18:51 -9.66043 -78.31746 9972 ft 180 kts 336°
2026-05-05 18:51 -9.64906 -78.32272 9939 ft 181 kts 337°
2026-05-05 18:51 -9.63759 -78.32801 9948 ft 178 kts 336°
2026-05-05 18:52 -9.62628 -78.33323 9995 ft 178 kts 336°
2026-05-05 18:52 -9.61490 -78.33849 9987 ft 181 kts 336°
2026-05-05 18:52 -9.60333 -78.34383 9963 ft 182 kts 337°
2026-05-05 18:52 -9.59188 -78.34911 9957 ft 181 kts 336°
2026-05-05 18:53 -9.58030 -78.35446 9943 ft 179 kts 336°
2026-05-05 18:53 -9.56914 -78.35961 9977 ft 177 kts 336°
2026-05-05 18:53 -9.55783 -78.36483 9973 ft 177 kts 337°
2026-05-05 18:53 -9.54658 -78.37002 9958 ft 176 kts 336°
2026-05-05 18:54 -9.53540 -78.37518 9976 ft 174 kts 337°
2026-05-05 18:54 -9.52436 -78.38027 9992 ft 175 kts 336°
2026-05-05 18:54 -9.51315 -78.38544 10012 ft 176 kts 337°
2026-05-05 18:54 -9.50193 -78.39062 10005 ft 180 kts 336°
2026-05-05 18:55 -9.49043 -78.39592 9980 ft 181 kts 336°
2026-05-05 18:55 -9.47904 -78.40118 9973 ft 179 kts 336°
2026-05-05 18:55 -9.46755 -78.40647 9977 ft 179 kts 336°
2026-05-05 18:55 -9.45625 -78.41169 9964 ft 178 kts 336°
2026-05-05 18:56 -9.44494 -78.41690 9972 ft 177 kts 336°
2026-05-05 18:56 -9.43376 -78.42206 9970 ft 176 kts 336°
2026-05-05 18:56 -9.42253 -78.42724 9982 ft 176 kts 336°
2026-05-05 18:56 -9.41132 -78.43241 9982 ft 177 kts 336°
2026-05-05 18:57 -9.39995 -78.43765 9991 ft 177 kts 336°
2026-05-05 18:57 -9.38874 -78.44282 10014 ft 179 kts 336°
2026-05-05 18:57 -9.37721 -78.44813 9995 ft 181 kts 336°
2026-05-05 18:57 -9.36575 -78.45341 10002 ft 183 kts 336°
2026-05-05 18:58 -9.35408 -78.45878 9965 ft 183 kts 336°
2026-05-05 18:58 -9.34259 -78.46408 9967 ft 180 kts 336°
2026-05-05 18:58 -9.33116 -78.46935 9994 ft 180 kts 336°
2026-05-05 18:58 -9.31958 -78.47469 9993 ft 180 kts 336°
2026-05-05 18:59 -9.30811 -78.47997 9987 ft 182 kts 336°
2026-05-05 18:59 -9.29661 -78.48527 9983 ft 181 kts 336°
2026-05-05 18:59 -9.28499 -78.49062 9971 ft 181 kts 336°
2026-05-05 18:59 -9.27356 -78.49588 9962 ft 181 kts 336°
2026-05-05 19:00 -9.26203 -78.50120 9960 ft 180 kts 336°
2026-05-05 19:00 -9.25069 -78.50642 9965 ft 179 kts 336°
2026-05-05 19:00 -9.23918 -78.51172 9970 ft 179 kts 336°
2026-05-05 19:00 -9.22780 -78.51697 9967 ft 179 kts 336°
2026-05-05 19:01 -9.21656 -78.52214 9959 ft 178 kts 336°
2026-05-05 19:01 -9.20517 -78.52738 9966 ft 178 kts 337°
2026-05-05 19:01 -9.19377 -78.53263 9972 ft 179 kts 336°
2026-05-05 19:01 -9.18239 -78.53787 9966 ft 179 kts 337°
2026-05-05 19:02 -9.17108 -78.54308 9961 ft 179 kts 337°
2026-05-05 19:02 -9.15958 -78.54837 9960 ft 179 kts 336°
2026-05-05 19:02 -9.14819 -78.55361 9961 ft 179 kts 337°
2026-05-05 19:02 -9.13685 -78.55883 9965 ft 178 kts 336°
2026-05-05 19:03 -9.12558 -78.56403 9970 ft 178 kts 336°
2026-05-05 19:03 -9.11424 -78.56924 9974 ft 178 kts 336°
2026-05-05 19:03 -9.10293 -78.57445 9974 ft 178 kts 336°
2026-05-05 19:03 -9.09160 -78.57965 9957 ft 174 kts 336°
2026-05-05 19:04 -9.08059 -78.58472 9828 ft 173 kts 337°
2026-05-05 19:04 -9.06960 -78.58978 9698 ft 174 kts 336°
2026-05-05 19:04 -9.05865 -78.59482 9578 ft 174 kts 336°
2026-05-05 19:04 -9.04758 -78.59991 9432 ft 173 kts 336°
2026-05-05 19:05 -9.03657 -78.60497 9288 ft 173 kts 336°
2026-05-05 19:05 -9.02554 -78.61005 9171 ft 173 kts 336°
2026-05-05 19:05 -9.01452 -78.61511 9026 ft 174 kts 336°
2026-05-05 19:05 -9.00339 -78.62023 8854 ft 174 kts 336°
2026-05-05 19:06 -8.99242 -78.62528 8737 ft 174 kts 336°
2026-05-05 19:06 -8.98127 -78.63040 8626 ft 174 kts 336°
2026-05-05 19:06 -8.97011 -78.63554 8544 ft 175 kts 336°
2026-05-05 19:06 -8.95901 -78.64064 8414 ft 175 kts 336°
2026-05-05 19:07 -8.94794 -78.64573 8312 ft 175 kts 336°
2026-05-05 19:07 -8.94039 -78.64920 8236 ft 176 kts 336°
2026-05-05 19:07 -8.92557 -78.65601 8089 ft 176 kts 337°
2026-05-05 19:07 -8.91432 -78.66119 7978 ft 176 kts 336°
2026-05-05 19:08 -8.90317 -78.66631 7858 ft 176 kts 337°
2026-05-05 19:08 -8.89205 -78.67142 7735 ft 176 kts 337°
2026-05-05 19:08 -8.88073 -78.67662 7650 ft 176 kts 336°
2026-05-05 19:08 -8.86959 -78.68174 7554 ft 176 kts 336°
2026-05-05 19:09 -8.85848 -78.68684 7442 ft 176 kts 336°
2026-05-05 19:09 -8.84722 -78.69202 7315 ft 176 kts 336°
2026-05-05 19:09 -8.83602 -78.69716 7195 ft 176 kts 336°
2026-05-05 19:09 -8.82482 -78.70230 7121 ft 177 kts 336°
2026-05-05 19:10 -8.81375 -78.70779 7042 ft 177 kts 333°
2026-05-05 19:10 -8.80278 -78.71365 6949 ft 177 kts 333°
2026-05-05 19:10 -8.79190 -78.71948 6801 ft 177 kts 334°
2026-05-05 19:10 -8.78091 -78.72536 6706 ft 177 kts 333°
2026-05-05 19:11 -8.77001 -78.73118 6640 ft 176 kts 333°
2026-05-05 19:11 -8.75911 -78.73700 6605 ft 177 kts 333°
2026-05-05 19:11 -8.74814 -78.74286 6524 ft 177 kts 333°
2026-05-05 19:11 -8.73733 -78.74863 6433 ft 177 kts 333°
2026-05-05 19:12 -8.72637 -78.75448 6340 ft 177 kts 333°
2026-05-05 19:12 -8.71535 -78.76035 6219 ft 177 kts 333°
2026-05-05 19:12 -8.70444 -78.76617 6125 ft 178 kts 333°
2026-05-05 19:12 -8.69338 -78.77207 6029 ft 178 kts 332°
2026-05-05 19:13 -8.68241 -78.77793 5940 ft 179 kts 333°
2026-05-05 19:13 -8.67145 -78.78378 5825 ft 176 kts 333°
2026-05-05 19:13 -8.66073 -78.78951 5707 ft 172 kts 333°
2026-05-05 19:13 -8.65010 -78.79518 5588 ft 169 kts 333°
2026-05-05 19:14 -8.63977 -78.80069 5472 ft 168 kts 333°
2026-05-05 19:14 -8.62938 -78.80624 5351 ft 166 kts 333°
2026-05-05 19:14 -8.61923 -78.81165 5271 ft 164 kts 333°
2026-05-05 19:14 -8.60911 -78.81705 5191 ft 162 kts 333°
2026-05-05 19:15 -8.59913 -78.82238 5084 ft 162 kts 333°
2026-05-05 19:15 -8.58920 -78.82767 4982 ft 161 kts 333°
2026-05-05 19:15 -8.57930 -78.83295 4893 ft 161 kts 333°
2026-05-05 19:15 -8.56928 -78.83830 4799 ft 161 kts 333°
2026-05-05 19:16 -8.55938 -78.84357 4725 ft 161 kts 333°
2026-05-05 19:16 -8.54938 -78.84890 4647 ft 161 kts 333°
2026-05-05 19:16 -8.53952 -78.85416 4557 ft 161 kts 333°
2026-05-05 19:16 -8.52949 -78.85950 4446 ft 161 kts 332°
2026-05-05 19:17 -8.51950 -78.86454 4330 ft 161 kts 343°
2026-05-05 19:17 -8.50832 -78.86571 4235 ft 160 kts 347°
2026-05-05 19:17 -8.49861 -78.87067 4262 ft 153 kts 328°
2026-05-05 19:17 -8.48972 -78.87650 4258 ft 148 kts 328°
2026-05-05 19:18 -8.48126 -78.88213 4268 ft 145 kts 328°
2026-05-05 19:18 -8.47279 -78.88779 4284 ft 144 kts 328°
2026-05-05 19:18 -8.46444 -78.89338 4274 ft 144 kts 327°
2026-05-05 19:18 -8.45610 -78.89893 4278 ft 143 kts 328°
2026-05-05 19:19 -8.44765 -78.90453 4261 ft 143 kts 327°
2026-05-05 19:19 -8.43939 -78.91000 4278 ft 142 kts 327°
2026-05-05 19:19 -8.43110 -78.91545 4266 ft 142 kts 327°
2026-05-05 19:19 -8.42284 -78.92088 4259 ft 141 kts 328°
2026-05-05 19:20 -8.41454 -78.92632 4276 ft 140 kts 327°
2026-05-05 19:20 -8.40628 -78.93173 4225 ft 146 kts 328°
2026-05-05 19:20 -8.39736 -78.93755 3983 ft 155 kts 328°
2026-05-05 19:20 -8.38822 -78.94349 3732 ft 157 kts 328°
2026-05-05 19:21 -8.37902 -78.94947 3493 ft 157 kts 328°
2026-05-05 19:21 -8.36978 -78.95550 3260 ft 157 kts 328°
2026-05-05 19:21 -8.36056 -78.96152 3025 ft 157 kts 328°
2026-05-05 19:21 -8.35135 -78.96750 2775 ft 156 kts 328°
2026-05-05 19:22 -8.34217 -78.97340 2537 ft 156 kts 328°
2026-05-05 19:22 -8.33314 -78.97914 2441 ft 146 kts 328°
2026-05-05 19:22 -8.32500 -78.98431 2446 ft 131 kts 328°
2026-05-05 19:22 -8.31757 -78.98903 2443 ft 119 kts 327°
2026-05-05 19:23 -8.31052 -78.99348 2460 ft 127 kts 328°
2026-05-05 19:23 -8.30224 -78.99868 2461 ft 148 kts 327°
2026-05-05 19:23 -8.29304 -79.00443 2459 ft 161 kts 328°
2026-05-05 19:23 -8.28332 -79.01048 2449 ft 165 kts 327°
2026-05-05 19:24 -8.27346 -79.01659 2443 ft 163 kts 328°
2026-05-05 19:24 -8.26386 -79.02259 2461 ft 161 kts 328°
2026-05-05 19:24 -8.25435 -79.02855 2456 ft 161 kts 327°
2026-05-05 19:24 -8.24480 -79.03456 2457 ft 161 kts 328°
2026-05-05 19:25 -8.23515 -79.04066 2461 ft 161 kts 328°
2026-05-05 19:25 -8.22566 -79.04666 2459 ft 160 kts 328°
2026-05-05 19:25 -8.21623 -79.05263 2465 ft 160 kts 327°
2026-05-05 19:25 -8.20676 -79.05862 2472 ft 160 kts 328°
2026-05-05 19:26 -8.19726 -79.06464 2476 ft 160 kts 328°
2026-05-05 19:26 -8.18788 -79.07058 2476 ft 160 kts 328°
2026-05-05 19:26 -8.17835 -79.07659 2478 ft 160 kts 327°
2026-05-05 19:26 -8.16890 -79.08255 2476 ft 160 kts 327°
2026-05-05 19:27 -8.15948 -79.08847 2478 ft 160 kts 328°
2026-05-05 19:27 -8.14992 -79.09446 2483 ft 160 kts 328°
2026-05-05 19:27 -8.14039 -79.10043 2480 ft 160 kts 328°
2026-05-05 19:27 -8.13092 -79.10621 2478 ft 160 kts 334°
2026-05-05 19:28 -8.11988 -79.10705 2473 ft 159 kts 11°
2026-05-05 19:28 -8.10899 -79.10484 2462 ft 152 kts 13°
2026-05-05 19:28 -8.09948 -79.10276 2372 ft 133 kts 13°
2026-05-05 19:28 -8.09079 -79.10072 2187 ft 117 kts 15°
2026-05-05 19:29 -8.08312 -79.09882 2059 ft 113 kts 15°
2026-05-05 19:29 -8.07569 -79.09698 2074 ft 105 kts 15°
2026-05-05 19:29 -8.06880 -79.09525 2080 ft 100 kts 15°
2026-05-05 19:29 -8.06210 -79.09357 2082 ft 98 kts 15°
2026-05-05 19:30 -8.05540 -79.09189 2043 ft 100 kts 15°
2026-05-05 19:30 -8.04843 -79.09013 1964 ft 105 kts 15°
2026-05-05 19:30 -8.04110 -79.08825 1842 ft 111 kts 15°
2026-05-05 19:30 -8.03359 -79.08630 1772 ft 110 kts 11°
2026-05-05 19:31 -8.02616 -79.08768 1682 ft 110 kts 326°
2026-05-05 19:31 -8.02176 -79.09368 1603 ft 106 kts 280°
2026-05-05 19:31 -8.02275 -79.10068 1548 ft 100 kts 236°
2026-05-05 19:31 -8.02808 -79.10482 1490 ft 97 kts 201°
2026-05-05 19:32 -8.03489 -79.10519 1307 ft 103 kts 165°
2026-05-05 19:32 -8.04152 -79.10214 990 ft 104 kts 153°
2026-05-05 19:32 -8.04794 -79.09972 795 ft 95 kts 173°
2026-05-05 19:32 -8.05466 -79.10022 565 ft 95 kts 192°
2026-05-05 19:33 -8.06105 -79.10218 409 ft 92 kts 196°
2026-05-05 19:33 -8.06725 -79.10411 256 ft 92 kts 195°
2026-05-05 19:33 -8.07320 -79.10596 162 ft 90 kts 197°
2026-05-05 19:33 -8.07908 -79.10783 114 ft 81 kts 196°
2026-05-05 19:34 -8.08287 -79.10902 103 ft 19 kts 202°
2026-05-05 19:34 -8.08397 -79.10938 100 ft 14 kts 199°
2026-05-05 19:34 -8.08470 -79.10922 99 ft 3 kts 108°
2026-05-05 19:35 -8.08470 -79.10920 99 ft 0 kts 109°
2026-05-05 19:35 -8.08472 -79.10918 99 ft 2 kts 109°
2026-05-05 19:35 -8.08477 -79.10876 100 ft 6 kts 51°
2026-05-05 19:35 -8.08441 -79.10858 101 ft 5 kts 46°
2026-05-05 19:36 -8.08445 -79.10828 102 ft 3 kts 107°
2026-05-05 19:36 -8.08451 -79.10805 102 ft 2 kts 107°
2026-05-05 19:36 -8.08463 -79.10797 102 ft 2 kts 199°
2026-05-05 19:36 -8.08471 -79.10800 102 ft 0 kts 198°